Location: Unnamed
(25.2826°S, 57.6099°W)
Time: 22:55:18
(UTC-04:00)

Hubble Space Telescope - Pass Details

Date: 26 January 2026
Orbit: 478 x 479 km, 28.5° (Epoch: 18 February)

Event Time Altitude Azimuth Distance (km) Brightness Sun altitude
Exits shadow 04:46:13 11° 297° (WNW) 1,595 2.5 -8.3°
Maximum altitude 04:49:50 64° 18° (NNE) 533 0.7 -7.6°
Drops below altitude 10° 04:53:37 10° 100° (E) 1,655 4.8 -6.8°
Sets 04:55:50 0° 103° (ESE) 2,535 6.3 -6.4°
